| time (UTC) | temp C | wind direction | speed KPH | gust KPH | rain 1hr cm | rain 24hr cm | rain mn cm | humidity % | barometer mb |
| 20260831234338 | 33 | 123 | 4.8 | 9.7 | 0.00 | 0.00 | 0.00 | 55 | 1013.6 |
| 20260831233340 | 33 | 122 | 9.7 | 14.5 | 0.00 | 0.00 | 0.00 | 54 | 1013.6 |
| 20260831232325 | 33 | 133 | 6.4 | 16.1 | 0.00 | 0.00 | 0.00 | 54 | 1013.6 |
| 20260831231331 | 33 | 68 | 6.4 | 12.9 | 0.00 | 0.00 | 0.00 | 55 | 1013.5 |
| 20260831230334 | 33 | 136 | 8.0 | 17.7 | 0.00 | 0.00 | 0.00 | 54 | 1013.4 |
| 20260831225339 | 34 | 135 | 9.7 | 19.3 | 0.00 | 0.00 | 0.00 | 54 | 1013.6 |
| 20260831224328 | 34 | 102 | 3.2 | 11.3 | 0.00 | 0.00 | 0.00 | 55 | 1013.6 |
| 20260831223328 | 34 | 105 | 1.6 | 6.4 | 0.00 | 0.00 | 0.00 | 54 | 1013.6 |
| 20260831222334 | 34 | 116 | 1.6 | 6.4 | 0.00 | 0.00 | 0.00 | 54 | 1013.7 |
| 20260831221340 | 33 | 83 | 1.6 | 4.8 | 0.00 | 0.00 | 0.00 | 55 | 1013.7 |
| 20260831220342 | 33 | 144 | 0.0 | 1.6 | 0.00 | 0.00 | 0.00 | 54 | 1013.7 |
| 20260831215346 | 34 | 99 | 3.2 | 6.4 | 0.00 | 0.00 | 0.00 | 52 | 1013.8 |
| 20260831214350 | 35 | 138 | 1.6 | 4.8 | 0.00 | 0.00 | 0.00 | 50 | 1013.9 |
| 20260831213331 | 35 | 56 | 1.6 | 3.2 | 0.00 | 0.00 | 0.00 | 50 | 1013.9 |
| 20260831212341 | 35 | 343 | 1.6 | 4.8 | 0.00 | 0.00 | 0.00 | 51 | 1014.0 |
| 20260831211326 | 35 | 351 | 0.0 | 4.8 | 0.00 | 0.00 | 0.00 | 50 | 1014.0 |
| 20260831210330 | 35 | 112 | 1.6 | 6.4 | 0.00 | 0.00 | 0.00 | 49 | 1014.1 |
| 20260831205335 | 35 | 89 | 1.6 | 6.4 | 0.00 | 0.00 | 0.00 | 49 | 1014.1 |
| 20260831204402 | 35 | 102 | 4.8 | 6.4 | 0.00 | 0.00 | 0.00 | 49 | 1014.3 |
| 20260831203323 | 35 | 351 | 1.6 | 4.8 | 0.00 | 0.00 | 0.00 | 49 | 1014.4 |
| 20260831202330 | 35 | 360 | 1.6 | 6.4 | 0.00 | 0.00 | 0.00 | 48 | 1014.7 |
| 20260831201340 | 35 | 360 | 1.6 | 12.9 | 0.00 | 0.00 | 0.00 | 48 | 1014.8 |
| 20260831200343 | 35 | 322 | 3.2 | 9.7 | 0.00 | 0.00 | 0.00 | 51 | 1014.9 |
| 20260831195330 | 35 | 37 | 1.6 | 4.8 | 0.00 | 0.00 | 0.00 | 49 | 1015.1 |
| 20260831194355 | 35 | 27 | 1.6 | 12.9 | 0.00 | 0.00 | 0.00 | 50 | 1015.1 |
| 20260831193335 | 35 | 10 | 3.2 | 9.7 | 0.00 | 0.00 | 0.00 | 50 | 1015.2 |
| 20260831192400 | 35 | 33 | 1.6 | 6.4 | 0.00 | 0.00 | 0.00 | 51 | 1015.4 |
| 20260831191346 | 35 | 108 | 1.6 | 4.8 | 0.00 | 0.00 | 0.00 | 53 | 1015.6 |
| 20260831190329 | 34 | 25 | 3.2 | 8.0 | 0.00 | 0.00 | 0.00 | 52 | 1015.8 |
| 20260831185333 | 34 | 58 | 0.0 | 8.0 | 0.00 | 0.00 | 0.00 | 54 | 1016.1 |
| 20260831184340 | 34 | 38 | 1.6 | 4.8 | 0.00 | 0.00 | 0.00 | 54 | 1016.2 |
| 20260831183343 | 33 | 41 | 1.6 | 8.0 | 0.00 | 0.00 | 0.00 | 55 | 1016.2 |
| 20260831182329 | 34 | 330 | 4.8 | 11.3 | 0.00 | 0.00 | 0.00 | 54 | 1016.3 |
| 20260831181333 | 33 | 166 | 1.6 | 6.4 | 0.00 | 0.00 | 0.00 | 54 | 1016.4 |
| 20260831180339 | 33 | 338 | 0.0 | 4.8 | 0.00 | 0.00 | 0.00 | 56 | 1016.6 |
| 20260831175324 | 34 | 133 | 1.6 | 6.4 | 0.00 | 0.00 | 0.00 | 53 | 1016.7 |
| 20260831174330 | 33 | 50 | 0.0 | 8.0 | 0.00 | 0.00 | 0.00 | 55 | 1016.8 |
| 20260831173337 | 33 | 16 | 1.6 | 3.2 | 0.00 | 0.00 | 0.00 | 59 | 1016.8 |
| 20260831172402 | 32 | 136 | 1.6 | 4.8 | 0.00 | 0.00 | 0.00 | 59 | 1017.0 |
| 20260831171347 | 33 | 122 | 1.6 | 3.2 | 0.00 | 0.00 | 0.00 | 58 | 1017.0 |
| 20260831170330 | 32 | 15 | 1.6 | 4.8 | 0.00 | 0.00 | 0.00 | 60 | 1017.1 |
| 20260831165336 | 32 | 145 | 0.0 | 1.6 | 0.00 | 0.00 | 0.00 | 64 | 1017.1 |
| 20260831164342 | 32 | 97 | 1.6 | 6.4 | 0.00 | 0.00 | 0.00 | 60 | 1017.1 |
| 20260831163325 | 33 | 80 | 0.0 | 4.8 | 0.00 | 0.00 | 0.00 | 59 | 1017.2 |
| 20260831162331 | 32 | 266 | 0.0 | 6.4 | 0.00 | 0.00 | 0.00 | 63 | 1017.1 |
| 20260831161333 | 32 | 66 | 3.2 | 4.8 | 0.00 | 0.00 | 0.00 | 64 | 1017.2 |
| 20260831160341 | 31 | 343 | 0.0 | 1.6 | 0.00 | 0.00 | 0.00 | 68 | 1017.2 |
| 20260831155328 | 30 | 343 | 1.6 | 6.4 | 0.00 | 0.00 | 0.00 | 71 | 1017.2 |
| 20260831154334 | 30 | 200 | 0.0 | 1.6 | 0.00 | 0.00 | 0.00 | 71 | 1017.2 |
| 20260831153356 | 30 | 353 | 0.0 | 0.0 | 0.00 | 0.00 | 0.00 | 75 | 1017.2 |
| 20260831152339 | 30 | 313 | 0.0 | 0.0 | 0.00 | 0.00 | 0.00 | 77 | 1017.2 |
| 20260831151326 | 29 | 289 | 0.0 | 0.0 | 0.00 | 0.00 | 0.00 | 79 | 1017.2 |
| 20260831150330 | 28 | 308 | 0.0 | 0.0 | 0.00 | 0.00 | 0.00 | 81 | 1017.0 |
| 20260831145341 | 28 | 230 | 0.0 | 0.0 | 0.00 | 0.00 | 0.00 | 83 | 1017.1 |
| 20260831144327 | 28 | 204 | 0.0 | 1.6 | 0.00 | 0.00 | 0.00 | 84 | 1017.1 |
| 20260831143330 | 28 | 166 | 0.0 | 0.0 | 0.00 | 0.00 | 0.00 | 86 | 1016.9 |
| 20260831142336 | 27 | 163 | 0.0 | 0.0 | 0.00 | 0.00 | 0.00 | 89 | 1016.9 |
| 20260831141340 | 26 | 32 | 0.0 | 0.0 | 0.00 | 0.00 | 0.00 | 91 | 1016.9 |
| 20260831140343 | 26 | 32 | 0.0 | 0.0 | 0.00 | 0.00 | 0.00 | 93 | 1016.9 |
| 20260831135328 | 25 | 32 | 0.0 | 0.0 | 0.00 | 0.00 | 0.00 | 93 | 1016.8 |
| 20260831134338 | 25 | 32 | 0.0 | 1.6 | 0.00 | 0.00 | 0.00 | 94 | 1016.7 |
| 20260831133341 | 25 | 32 | 0.0 | 0.0 | 0.00 | 0.00 | 0.00 | 95 | 1016.8 |
| 20260831132347 | 24 | 32 | 0.0 | 1.6 | 0.00 | 0.00 | 0.00 | 95 | 1016.8 |
| 20260831131331 | 23 | 24 | 0.0 | 0.0 | 0.00 | 0.00 | 0.00 | 94 | 1016.6 |
| 20260831125339 | 23 | 29 | 0.0 | 0.0 | 0.00 | 0.00 | 0.00 | 94 | 1016.4 |
| 20260831124345 | 23 | 29 | 0.0 | 0.0 | 0.00 | 0.00 | 0.00 | 94 | 1016.1 |
| 20260831123326 | 23 | 16 | 0.0 | 0.0 | 0.00 | 0.00 | 0.00 | 94 | 1015.9 |
| 20260831122332 | 23 | 16 | 0.0 | 0.0 | 0.00 | 0.00 | 0.00 | 94 | 1015.8 |
| 20260831121341 | 22 | 16 | 0.0 | 0.0 | 0.00 | 0.00 | 0.00 | 93 | 1015.8 |
| 20260831120343 | 23 | 16 | 0.0 | 0.0 | 0.00 | 0.00 | 0.00 | 92 | 1015.6 |
| 20260831115328 | 23 | 16 | 0.0 | 0.0 | 0.00 | 0.00 | 0.00 | 93 | 1015.5 |
| 20260831114334 | 23 | 16 | 0.0 | 0.0 | 0.00 | 0.00 | 0.00 | 93 | 1015.6 |
| 20260831113338 | 23 | 16 | 0.0 | 0.0 | 0.00 | 0.00 | 0.00 | 93 | 1015.5 |
| 20260831112342 | 23 | 14 | 0.0 | 0.0 | 0.00 | 0.00 | 0.00 | 93 | 1015.6 |
| 20260831111331 | 23 | 14 | 0.0 | 0.0 | 0.00 | 0.00 | 0.00 | 91 | 1015.6 |
| 20260831110334 | 23 | 14 | 0.0 | 0.0 | 0.00 | 0.00 | 0.00 | 92 | 1015.6 |
| 20260831105340 | 23 | 14 | 0.0 | 0.0 | 0.00 | 0.00 | 0.00 | 92 | 1015.5 |
| 20260831104345 | 23 | 14 | 0.0 | 0.0 | 0.00 | 0.00 | 0.00 | 91 | 1015.5 |
| 20260831103349 | 23 | 14 | 0.0 | 0.0 | 0.00 | 0.00 | 0.00 | 91 | 1015.6 |
| 20260831102331 | 23 | 14 | 0.0 | 0.0 | 0.00 | 0.00 | 0.00 | 92 | 1015.5 |
| 20260831101337 | 23 | 14 | 0.0 | 0.0 | 0.00 | 0.00 | 0.00 | 91 | 1015.5 |
| 20260831100340 | 23 | 14 | 0.0 | 0.0 | 0.00 | 0.00 | 0.00 | 91 | 1015.5 |
| 20260831095325 | 23 | 14 | 0.0 | 0.0 | 0.00 | 0.00 | 0.00 | 90 | 1015.6 |
| 20260831094336 | 23 | 14 | 0.0 | 1.6 | 0.00 | 0.00 | 0.00 | 90 | 1015.6 |
| 20260831093340 | 24 | 14 | 1.6 | 4.8 | 0.00 | 0.00 | 0.00 | 90 | 1015.5 |
| 20260831092325 | 24 | 226 | 0.0 | 1.6 | 0.00 | 0.00 | 0.00 | 90 | 1015.3 |
| 20260831091352 | 24 | 226 | 0.0 | 1.6 | 0.00 | 0.00 | 0.00 | 91 | 1015.3 |
| 20260831090335 | 24 | 228 | 0.0 | 1.6 | 0.00 | 0.00 | 0.00 | 91 | 1015.3 |
| 20260831085340 | 24 | 196 | 0.0 | 1.6 | 0.00 | 0.00 | 0.00 | 90 | 1015.4 |
| 20260831084327 | 24 | 196 | 0.0 | 0.0 | 0.00 | 0.00 | 0.00 | 90 | 1015.4 |
| 20260831083335 | 24 | 196 | 0.0 | 0.0 | 0.00 | 0.00 | 0.00 | 90 | 1015.5 |
| 20260831082341 | 24 | 196 | 0.0 | 1.6 | 0.00 | 0.00 | 0.00 | 89 | 1015.5 |
| 20260831081327 | 24 | 159 | 0.0 | 1.6 | 0.00 | 0.00 | 0.00 | 89 | 1015.5 |
| 20260831080330 | 24 | 159 | 0.0 | 0.0 | 0.00 | 0.00 | 0.00 | 89 | 1015.5 |
| 20260831075335 | 25 | 159 | 0.0 | 0.0 | 0.00 | 0.00 | 0.00 | 89 | 1015.5 |
| 20260831074341 | 25 | 159 | 0.0 | 0.0 | 0.00 | 0.00 | 0.00 | 88 | 1015.5 |
| 20260831073345 | 25 | 159 | 0.0 | 0.0 | 0.00 | 0.00 | 0.00 | 88 | 1015.5 |
| 20260831072332 | 25 | 159 | 0.0 | 0.0 | 0.00 | 0.00 | 0.00 | 88 | 1015.7 |
| 20260831071336 | 25 | 159 | 0.0 | 0.0 | 0.00 | 0.00 | 0.00 | 89 | 1015.7 |
| 20260831070340 | 24 | 159 | 0.0 | 0.0 | 0.00 | 0.00 | 0.00 | 88 | 1015.8 |
| 20260831065325 | 25 | 159 | 0.0 | 1.6 | 0.00 | 0.00 | 0.00 | 88 | 1016.0 |
| 20260831064349 | 25 | 159 | 0.0 | 1.6 | 0.00 | 0.00 | 0.00 | 86 | 1016.0 |
| 20260831063331 | 25 | 159 | 0.0 | 0.0 | 0.00 | 0.00 | 0.00 | 86 | 1016.0 |
| 20260831062337 | 25 | 160 | 0.0 | 1.6 | 0.00 | 0.00 | 0.00 | 87 | 1015.9 |
| 20260831061324 | 25 | 159 | 0.0 | 1.6 | 0.00 | 0.00 | 0.00 | 86 | 1015.9 |
| 20260831060346 | 25 | 159 | 0.0 | 1.6 | 0.00 | 0.00 | 0.00 | 85 | 1016.0 |
| 20260831055330 | 25 | 160 | 0.0 | 1.6 | 0.00 | 0.00 | 0.00 | 85 | 1016.0 |
| 20260831054335 | 25 | 135 | 0.0 | 1.6 | 0.00 | 0.00 | 0.00 | 85 | 1015.9 |
| 20260831053338 | 26 | 135 | 1.6 | 3.2 | 0.00 | 0.00 | 0.00 | 84 | 1015.9 |
| 20260831051326 | 26 | 158 | 0.0 | 0.0 | 0.00 | 0.00 | 0.00 | 82 | 1015.8 |
| 20260831050329 | 26 | 158 | 0.0 | 0.0 | 0.00 | 0.00 | 0.00 | 82 | 1015.7 |
| 20260831045334 | 26 | 145 | 0.0 | 1.6 | 0.00 | 0.00 | 0.00 | 82 | 1015.8 |
| 20260831044325 | 26 | 145 | 0.0 | 3.2 | 0.00 | 0.00 | 0.00 | 81 | 1015.7 |
| 20260831043328 | 26 | 135 | 3.2 | 4.8 | 0.00 | 0.00 | 0.00 | 81 | 1015.7 |
| 20260831042353 | 27 | 137 | 1.6 | 4.8 | 0.00 | 0.00 | 0.00 | 80 | 1015.6 |
| 20260831041357 | 27 | 116 | 1.6 | 3.2 | 0.00 | 0.00 | 0.00 | 79 | 1015.5 |
| 20260831040340 | 27 | 150 | 1.6 | 3.2 | 0.00 | 0.00 | 0.00 | 78 | 1015.3 |
| 20260831035326 | 27 | 136 | 1.6 | 3.2 | 0.00 | 0.00 | 0.00 | 78 | 1015.2 |
| 20260831034351 | 27 | 148 | 1.6 | 6.4 | 0.00 | 0.00 | 0.00 | 77 | 1015.2 |
| 20260831033333 | 27 | 151 | 1.6 | 4.8 | 0.00 | 0.00 | 0.00 | 76 | 1015.1 |
| 20260831032338 | 27 | 139 | 1.6 | 3.2 | 0.00 | 0.00 | 0.00 | 76 | 1015.1 |
| 20260831031326 | 28 | 145 | 3.2 | 4.8 | 0.00 | 0.00 | 0.00 | 75 | 1015.0 |
| 20260831030330 | 28 | 149 | 1.6 | 4.8 | 0.00 | 0.00 | 0.00 | 74 | 1015.0 |
| 20260831025336 | 28 | 137 | 3.2 | 8.0 | 0.00 | 0.00 | 0.00 | 73 | 1014.9 |
| 20260831024339 | 28 | 153 | 3.2 | 4.8 | 0.00 | 0.00 | 0.00 | 73 | 1014.7 |
| 20260831023325 | 28 | 137 | 3.2 | 8.0 | 0.00 | 0.00 | 0.00 | 73 | 1014.4 |
| 20260831022351 | 28 | 145 | 3.2 | 6.4 | 0.00 | 0.00 | 0.00 | 72 | 1014.2 |
| 20260831021335 | 29 | 134 | 4.8 | 6.4 | 0.00 | 0.00 | 0.00 | 71 | 1014.1 |
| 20260831020329 | 29 | 145 | 3.2 | 6.4 | 0.00 | 0.00 | 0.00 | 70 | 1014.0 |
| 20260831015354 | 30 | 139 | 3.2 | 6.4 | 0.00 | 0.00 | 0.00 | 70 | 1014.0 |
| 20260831014342 | 30 | 141 | 3.2 | 4.8 | 0.00 | 0.00 | 0.00 | 70 | 1013.8 |
| 20260831013327 | 30 | 149 | 3.2 | 6.4 | 0.00 | 0.00 | 0.00 | 68 | 1013.7 |
| 20260831012334 | 30 | 145 | 1.6 | 4.8 | 0.00 | 0.00 | 0.00 | 68 | 1013.6 |
| 20260831011339 | 31 | 140 | 3.2 | 4.8 | 0.00 | 0.00 | 0.00 | 66 | 1013.7 |
| 20260831010343 | 31 | 142 | 3.2 | 8.0 | 0.00 | 0.00 | 0.00 | 65 | 1013.7 |
| 20260831005348 | 31 | 152 | 3.2 | 4.8 | 0.00 | 0.00 | 0.00 | 65 | 1013.5 |
| 20260831004332 | 31 | 143 | 1.6 | 4.8 | 0.00 | 0.00 | 0.00 | 63 | 1013.4 |
| 20260831003335 | 31 | 142 | 1.6 | 6.4 | 0.00 | 0.00 | 0.00 | 62 | 1013.4 |
| 20260831002324 | 32 | 168 | 3.2 | 6.4 | 0.00 | 0.00 | 0.00 | 61 | 1013.3 |
| 20260831001330 | 32 | 141 | 3.2 | 8.0 | 0.00 | 0.00 | 0.00 | 60 | 1013.4 |
| 20260831000335 | 32 | 135 | 6.4 | 12.9 | 0.00 | 0.00 | 0.00 | 57 | 1013.2 |
| 20260830235343 | 33 | 178 | 1.6 | 6.4 | 0.00 | 0.00 | 0.00 | 55 | 1013.2 |